Location: Overspoor
(51.4747°N, 5.6641°E)
Time: 00:02:24
(UTC+02:00)

KKS-1 - Pass Details

Date: 04 July 2022
Orbit: 635 x 648 km, 98.2° (Epoch: 07 August)

Event Time Altitude Azimuth Distance (km) Brightness Sun altitude
Rises 23:18:13 0° 19° (NNE) 2,977 ? -9.3°
Reaches altitude 10° 23:20:32 10° 26° (NNE) 2,061 ? -9.5°
Maximum altitude 23:24:49 43° 98° (E) 914 ? -9.9°
Enters shadow 23:28:42 12° 169° (S) 1,901 ? -10.2°
